Location: Unspecified
(48.2082°N, 0.0000°E)
Time: 15:10:49
(UTC+00:00)

Vanguard 1 - Pass Details

Date: 26 June 2019
Orbit: 653 x 3830 km, 34.3° (Epoch: 20 July)

Event Time Altitude Azimuth Distance (km) Brightness Sun altitude
Rises 07:14:49 0° 272° (W) 5,952 13.5 29.0°
Reaches altitude 10° 07:21:00 10° 256° (WSW) 4,241 12.9 30.0°
Maximum altitude 07:26:57 17° 221° (SW) 3,026 12.3 31.0°
Drops below altitude 10° 07:31:24 10° 184° (S) 3,000 12.6 31.8°
Sets 07:34:42 0° 162° (SSE) 3,590 13.2 32.3°
